Showing default

UNICORN-2P, 63981

Orbit data source: Space-Track

UNICORN-2P, 63981 is a payload satellite owned by Alba Orbital (DE) in SSO that was launched on Sat, 15 Mar 2025 UTC via an FALCON 9 launch vehicle from the Air Force Western Test Range (AFWTR). Payload-class satellites include a variety of spacecraft equipped with specific instruments for various scientific and technological missions. These include communications satellites like Starlink; space stations such as the ISS; scientific satellites like the Hubble; Earth observation satellites from companies like Planet Labs, Umbra, and HawkEye 360; GPS; miniature CubeSats for education and research; and military/defense satellites.

Loading next visibility...
Identifier
63981, 2025-052BT
Orbit
SSO
Country
Flag of DEDE / GER
Related business
Manufacturer
Alba Orbital
Mission
Operational Commercial Imaging
Bus & Motor
POCKETQUBE 3P, Unknown motor
Mass
~0.75 kg wet, ~0.75 kg dry
Launch date (UTC)
2025-03-15 (7 months ago)
Launch vehicle
FALCON 9
Launch site
Air Force Western Test Range (AFWTR)
Object type
Payload
Rocket body
Debris
Shape & HBR
Box + 2 Pan, 0.2 m
Radar Cross Section
0.016 m², Small (<0.1 m²)

Expand to show TLE details & history
Last TLE update: 23 hours ago

TLE from 23 hours ago
0 UNICORN-2P
1 63981U 25052BT  25298.21574326  .00067940  00000-0  22257-2 0  9993
2 63981  97.4112 190.2467 0005776  99.3637 260.8258 15.31382646 34179
Epoch: 2025-10-25T05:10Z
TLE epoch observation values (Epoch: 2025-10-25T05:10:40.217Z)
Latitude
0.00001°
Longitude
78.72964°
Altitude
475.425 km
Speed
7.628 km/s
True Right ascension
12h 40m 59s
True Declination
0° 00' 00"
Sunlit
Object was in daylight at epoch
Visualization orbit readout
Latitude
Unknown
Longitude
Unknown
Altitude
Unknown
Speed
Unknown
Apparent Right ascension
Unknown
Apparent Declination
Unknown
Sunlit
N/A
Visualization observer readout
Local Sidereal Time
23:10:44
Azimuth
Unknown
Elevation
Unknown
Doppler factor
Unknown
Orbital elements
Apogee altitude
472.592 km
Perigee altitude
464.682 km
Semi-major axis
6,846.774 km
Eccentricity
0.00058
Inclination
97.4112°
RAAN
190.2467°
Arg. of periapsis
99.3637°
True anomaly
260.76047°
Mean anomaly
260.8258°
Eccentric anomaly
260.79313°
Mean motion
3.83102 °/min
Orbital period
93.97 mins
BSTAR
0.0022257
Loading maneuver chart data...
Computing Atmospheric mass density...
Loading historical data...
Loading historical data...
Loading historical data...
Loading historical data...
Loading historical data...
Loading historical data...
Loading historical data...

Documentation

Showing up to 5 results
|